User: anonymous   Login
Location: Fountain Hills
(33.6120°N, 111.7170°W)
Time: 22:15:42
(UTC-07:00)
Language:

Hamsat - Orbit

View from above orbital plane
View from above orbital plane
View from above satellite
View from above satellite

Ground track
Ground track

The orbit data is extracted from the following two-line orbital elements,

1 28650U 05017B   15085.80257281  .00003545  00000-0  39961-3 0  9994
2 28650 097.5722 082.0342 0022898 306.9917 052.9203 14.87015676535209
Epoch (UTC): 26 March 2015 19:15:42
Eccentricity: 0.0022898
inclination: 97.5722°
perigee height: 591 km
apogee height: 623 km
right ascension of ascending node: 82.0342°
argument of perigee: 306.9917°
revolutions per day: 14.87015676
mean anomaly at epoch: 52.9203°
orbit number at epoch: 53520

The dashed part of the orbit path shows where the satellite is in the earth's shadow,  

DLR